timestamp,surface_pressure_avg,surface_temp_avg,battery_voltage,lat,long
2022-07-14 00:09:00+00:00,389.0662,17.19,12.01,47.84626,-54.09684
2022-07-14 00:19:00+00:00,384.7263,17.2,12.01,47.84626,-54.09684
2022-07-14 00:29:00+00:00,382.0696,17.2,12.01,47.84626,-54.09684
2022-07-14 00:39:00+00:00,379.2946,17.2,12.01,47.84626,-54.09684
2022-07-14 00:49:00+00:00,372.6396,17.2,12.01,47.84626,-54.09684
2022-07-14 00:59:00+00:00,366.3579,17.2,12.01,47.84626,-54.09684
2022-07-14 01:09:00+00:00,362.9279,17.2,12.01,47.84626,-54.09684
2022-07-14 01:19:01+00:00,360.208,17.2,12.01,47.84626,-54.09684
2022-07-14 01:29:01+00:00,351.7147,17.2,12.01,47.84626,-54.09684
2022-07-14 01:39:01+00:00,344.2229,17.24,12.01,47.84626,-54.09684
2022-07-14 01:49:01+00:00,338.0397,17.26,12.01,47.84626,-54.09684
2022-07-14 01:59:01+00:00,327.6479,17.27,12.01,47.84626,-54.09684
2022-07-14 02:09:01+00:00,317.9363,17.28,12.01,47.84626,-54.09684
2022-07-14 02:19:01+00:00,308.563,17.27,12.01,47.84626,-54.09684
2022-07-14 02:29:01+00:00,299.773,17.27,12.01,47.84626,-54.09684
2022-07-14 02:39:01+00:00,288.518,17.28,12.01,47.84626,-54.09684
2022-07-14 02:49:01+00:00,279.588,17.29,12.01,47.84626,-54.09684
2022-07-14 02:59:01+00:00,273.9147,17.27,12.01,47.84626,-54.09684
2022-07-14 03:09:01+00:00,265.4048,17.28,12.01,47.84626,-54.09684
2022-07-14 03:19:00+00:00,253.7614,17.24,12.01,47.84626,-54.09684
2022-07-14 03:29:00+00:00,244.2515,17.2,12.01,47.84626,-54.09684
2022-07-14 03:39:00+00:00,236.3215,17.2,12.01,47.84626,-54.09684
2022-07-14 03:49:00+00:00,229.1931,17.2,12.01,47.84626,-54.09684
2022-07-14 03:59:00+00:00,222.0481,17.2,12.01,47.84626,-54.09684
2022-07-14 04:09:00+00:00,212.0197,17.2,12.01,47.84626,-54.09684
2022-07-14 04:19:00+00:00,204.4248,17.2,12.01,47.84626,-54.09684
2022-07-14 04:29:00+00:00,200.1081,17.2,12.01,47.84626,-54.09684
2022-07-14 04:39:00+00:00,192.2431,17.2,12.01,47.84626,-54.09684
2022-07-14 04:49:00+00:00,183.8498,17.2,12.01,47.84626,-54.09684
2022-07-14 04:59:00+00:00,181.9681,17.2,12.01,47.84626,-54.09684
2022-07-14 05:09:00+00:00,181.4265,17.2,12.01,47.84626,-54.09684
2022-07-14 05:19:00+00:00,176.0598,17.2,12.01,47.84626,-54.09684
2022-07-14 05:29:00+00:00,174.4981,17.2,12.01,47.84626,-54.09684
2022-07-14 05:39:00+00:00,176.0015,17.19,12.01,47.84626,-54.09684
2022-07-14 05:49:00+00:00,173.7631,17.16,12.01,47.84626,-54.09684
2022-07-14 05:59:00+00:00,175.8948,17.1,12.01,47.84626,-54.09684
2022-07-14 06:09:00+00:00,179.3965,17.1,12.01,47.84626,-54.09684
2022-07-14 06:19:01+00:00,178.1548,17.1,12.01,47.84626,-54.09684
2022-07-14 06:29:01+00:00,177.2398,17.1,12.01,47.84626,-54.09684
2022-07-14 06:39:01+00:00,180.6281,17.1,12.01,47.84626,-54.09684
2022-07-14 06:49:01+00:00,184.7014,17.1,12.01,47.84626,-54.09684
2022-07-14 06:59:01+00:00,188.4931,17.1,12.01,47.84626,-54.09684
2022-07-14 07:09:01+00:00,191.6281,17.1,12.01,47.84626,-54.09684
2022-07-14 07:19:00+00:00,191.1981,17.1,12.01,47.84626,-54.09684
2022-07-14 07:29:00+00:00,193.8698,17.1,12.01,47.84626,-54.09684
2022-07-14 07:39:00+00:00,197.4664,17.1,12.01,47.84626,-54.09684
2022-07-14 07:49:00+00:00,200.4948,17.1,12.01,47.84626,-54.09684
2022-07-14 07:59:00+00:00,202.9298,17.1,12.01,47.84626,-54.09684
2022-07-14 08:09:00+00:00,206.5764,17.1,12.01,47.84626,-54.09684
2022-07-14 08:19:00+00:00,215.7265,17.1,11.93,47.84626,-54.09684
2022-07-14 08:29:00+00:00,222.7214,17.1,11.93,47.84626,-54.09684
2022-07-14 08:39:00+00:00,224.1314,17.1,11.93,47.84626,-54.09684
2022-07-14 08:49:00+00:00,230.4614,17.1,11.93,47.84626,-54.09684
2022-07-14 08:59:00+00:00,241.1364,17.1,11.93,47.84626,-54.09684
2022-07-14 09:09:00+00:00,248.5931,17.1,11.93,47.84626,-54.09684
2022-07-14 09:19:00+00:00,254.5547,17.1,11.93,47.84626,-54.09684
2022-07-14 09:29:00+00:00,264.5697,17.1,11.93,47.84626,-54.09684
2022-07-14 09:39:00+00:00,276.2097,17.1,11.93,47.84626,-54.09684
2022-07-14 09:49:00+00:00,283.9047,17.1,11.93,47.84626,-54.09684
2022-07-14 09:59:00+00:00,289.3114,17.1,11.93,47.84626,-54.09684
2022-07-14 10:09:00+00:00,299.7947,17.1,11.93,47.84626,-54.09684
2022-07-14 10:19:00+00:00,310.0363,17.1,12.01,47.84626,-54.09684
2022-07-14 10:29:00+00:00,315.9613,17.1,12.01,47.84626,-54.09684
2022-07-14 10:39:00+00:00,319.3263,17.1,12.01,47.84626,-54.09684
2022-07-14 10:49:00+00:00,323.7029,17.1,12.01,47.84626,-54.09684
2022-07-14 10:59:00+00:00,328.05800000000005,17.1,12.01,47.84626,-54.09684
2022-07-14 11:09:00+00:00,334.4846,17.1,12.01,47.84626,-54.09684
2022-07-14 11:19:01+00:00,339.3829,17.1,12.09,47.84626,-54.09684
2022-07-14 11:29:01+00:00,341.1996,17.1,12.09,47.84626,-54.09684
2022-07-14 11:39:01+00:00,344.7896,17.09,12.09,47.84626,-54.09684
2022-07-14 11:49:01+00:00,350.6597,17.0,12.09,47.84626,-54.09684
2022-07-14 11:59:01+00:00,351.5897,16.97,12.09,47.84626,-54.09684
2022-07-14 12:09:01+00:00,351.2463,16.95,12.09,47.84626,-54.09684
2022-07-14 12:19:01+00:00,353.233,16.7,12.25,47.84626,-54.09684
2022-07-14 12:29:01+00:00,353.2046,16.68,12.25,47.84626,-54.09684
2022-07-14 12:39:01+00:00,348.2546,16.8,12.25,47.84626,-54.09684
2022-07-14 12:49:01+00:00,347.7395,16.8,12.25,47.84626,-54.09684
2022-07-14 12:59:01+00:00,348.2447,16.8,12.25,47.84626,-54.09684
2022-07-14 13:09:01+00:00,343.4363,16.91,12.25,47.84626,-54.09684
2022-07-14 13:19:01+00:00,337.3396,17.0,12.33,47.84626,-54.09684
2022-07-14 13:29:01+00:00,336.2979,16.9,12.33,47.84626,-54.09684
2022-07-14 13:39:01+00:00,333.2496,16.9,12.33,47.84626,-54.09684
2022-07-14 13:49:01+00:00,323.1364,17.18,12.33,47.84626,-54.09684
2022-07-14 13:59:01+00:00,316.828,17.29,12.33,47.84626,-54.09684
2022-07-14 14:09:01+00:00,315.9563,17.3,12.33,47.84626,-54.09684
2022-07-14 14:19:00+00:00,307.653,17.34,12.33,47.84626,-54.09684
2022-07-14 14:29:00+00:00,295.6097,17.47,12.33,47.84626,-54.09684
2022-07-14 14:39:00+00:00,288.6064,17.5,12.33,47.84626,-54.09684
2022-07-14 14:49:00+00:00,280.8098,17.13,12.33,47.84626,-54.09684
2022-07-14 14:59:00+00:00,268.0814,17.38,12.33,47.84626,-54.09684
2022-07-14 15:09:00+00:00,258.9915,17.5,12.33,47.84626,-54.09684
2022-07-14 15:19:00+00:00,253.1531,17.5,12.33,47.84626,-54.09684
2022-07-14 15:29:00+00:00,242.4614,17.5,12.33,47.84626,-54.09684
2022-07-14 15:39:00+00:00,229.1598,17.6,12.33,47.84626,-54.09684
2022-07-14 15:49:00+00:00,223.3748,17.7,12.33,47.84626,-54.09684
2022-07-14 15:59:00+00:00,218.3981,17.7,12.33,47.84626,-54.09684
2022-07-14 16:09:00+00:00,208.7164,17.7,12.33,47.84626,-54.09684
2022-07-14 16:19:01+00:00,200.4565,17.7,12.33,47.84626,-54.09684
2022-07-14 16:29:01+00:00,198.4381,17.73,12.33,47.84626,-54.09684
2022-07-14 16:39:01+00:00,194.6581,17.8,12.33,47.84626,-54.09684
2022-07-14 16:49:01+00:00,189.1148,17.8,12.33,47.84626,-54.09684
2022-07-14 16:59:01+00:00,186.1698,17.89,12.33,47.84626,-54.09684
2022-07-14 17:09:01+00:00,185.0832,17.92,12.33,47.84626,-54.09684
2022-07-14 17:19:00+00:00,180.7965,18.0,12.25,47.84626,-54.09684
2022-07-14 17:29:00+00:00,177.1648,18.0,12.25,47.84626,-54.09684
2022-07-14 17:39:00+00:00,180.7932,17.99,12.25,47.84626,-54.09684
2022-07-14 17:49:00+00:00,181.1564,17.9,12.25,47.84626,-54.09684
2022-07-14 17:59:00+00:00,175.6881,17.8,12.25,47.84626,-54.09684
2022-07-14 18:09:00+00:00,179.2115,17.7,12.25,47.84626,-54.09684
2022-07-14 18:19:01+00:00,184.2164,17.6,12.17,47.84626,-54.09684
2022-07-14 18:29:01+00:00,180.1531,17.6,12.17,47.84626,-54.09684
2022-07-14 18:39:01+00:00,179.6148,17.75,12.17,47.84626,-54.09684
2022-07-14 18:49:01+00:00,188.3014,17.7,12.17,47.84626,-54.09684
2022-07-14 18:59:01+00:00,193.6414,17.6,12.17,47.84626,-54.09684
2022-07-14 19:09:01+00:00,194.1665,17.48,12.17,47.84626,-54.09684
2022-07-14 19:19:00+00:00,201.1581,17.3,12.17,47.84626,-54.09684
2022-07-14 19:29:00+00:00,208.3198,17.25,12.17,47.84626,-54.09684
2022-07-14 19:39:00+00:00,208.8248,17.23,12.17,47.84626,-54.09684
2022-07-14 19:49:00+00:00,211.5147,17.29,12.17,47.84626,-54.09684
2022-07-14 19:59:00+00:00,217.1847,17.3,12.17,47.84626,-54.09684
2022-07-14 20:09:00+00:00,220.9464,17.3,12.17,47.84626,-54.09684
2022-07-14 20:19:00+00:00,225.9631,17.3,12.17,47.84626,-54.09684
2022-07-14 20:29:00+00:00,234.2798,17.3,12.17,47.84626,-54.09684
2022-07-14 20:39:00+00:00,243.588,17.3,12.17,47.84626,-54.09684
2022-07-14 20:49:00+00:00,248.4748,17.3,12.17,47.84626,-54.09684
2022-07-14 20:59:00+00:00,253.7464,17.3,12.17,47.84626,-54.09684
2022-07-14 21:09:00+00:00,263.0714,17.3,12.17,47.84626,-54.09684
2022-07-14 21:19:01+00:00,270.7981,17.3,12.09,47.84626,-54.09684
2022-07-14 21:29:01+00:00,275.988,17.66,12.09,47.84626,-54.09684
2022-07-14 21:39:01+00:00,285.9131,17.9,12.09,47.84626,-54.09684
2022-07-14 21:49:01+00:00,295.868,17.9,12.09,47.84626,-54.09684
2022-07-14 21:59:01+00:00,304.4014,17.9,12.09,47.84626,-54.09684
2022-07-14 22:09:01+00:00,316.2496,17.9,12.09,47.84626,-54.09684
2022-07-14 22:19:00+00:00,332.9963,17.8,12.09,47.84626,-54.09684
2022-07-14 22:29:00+00:00,342.7146,17.8,12.09,47.84626,-54.09684
2022-07-14 22:39:00+00:00,350.42800000000005,17.88,12.09,47.84626,-54.09684
2022-07-14 22:49:00+00:00,359.6913,17.9,12.09,47.84626,-54.09684
2022-07-14 22:59:00+00:00,372.1763,17.7,12.09,47.84626,-54.09684
2022-07-14 23:09:00+00:00,379.3946,17.79,12.09,47.84626,-54.09684
2022-07-14 23:19:00+00:00,381.0063,17.8,12.09,47.84626,-54.09684
2022-07-14 23:29:00+00:00,386.5978,17.8,12.09,47.84626,-54.09684
2022-07-14 23:39:00+00:00,391.8463,17.8,12.09,47.84626,-54.09684
2022-07-14 23:49:00+00:00,389.9995,17.8,12.09,47.84626,-54.09684
2022-07-14 23:59:00+00:00,391.4778,17.8,12.09,47.84626,-54.09684
